Погода в Светловодске

Погода в Светловодске : погода сейчас, прогноз погоды и архив. Всё, что Вы хотите узнать о погоде в Светловодске!

Хотите узнать прогноз погоды в Светловодске? Тогда Вам сюда: Погода в Светловодске

Поиск расширенной информации на нашем сайте:

Другие новости

Новости СМИ2

Главная страница сайта

Новости сайта

03.07.2017

Напоминаем, что на нашем специализированном сайте Метеоцентр.Азия вы можете получить высокодетализированные автоматические прогнозы погоды по пунктам России, СНГ и мира в авиационном формате (включающие направление и скорость ветра, видимость, явления погоды, количество и форму облачности, нижнюю и верхнюю границу облачности).


Погода в Светловодске - сегодня

Время (UTC), дата Ветер
(°,м/с) 
Видим.   Явления Облачность Т
(°С)
Тd
(°С)
f(%) Тe
(°С)
Pmin
(гПа)
dP
(гПа)
Po
(мм)
O2
(г/м3)
Тmin Tmax R s Состояние
почвы
21 17.08.17 100 (В) 25000 м    ясно 
+23.3 +7.9 37 +23  1018.5  0.9  757  280           
00 18.08.17 040 (СВ) 20000 м    ясно 
+20.5 +12.9 62 +26  1018.4  -0.2  756  281           
03 18.08.17 020 (С) 20000 м    4/0 средняя 
[Ac und]
+18.4 +12.3 68 +24  1017.9  -0.5  756  283           
06 18.08.17 100 (В) 20000 м    3/1 1000 м средняя 
[Cu hum|Ac trans]
+23.4 +12.1 49 +27  1018.1  0.3  756  278  +18.2         
09 18.08.17 090 (В) 20000 м    3/0 средняя 
[Ac trans]
+28.5 +9.2 30 +29  1018.2  0.3  756  274           
12 18.08.17 110 (В) 20000 м    1/1 1000 м 
[Cu hum]
+32.8 +6.7 20 +33  1017.4  -0.7  756  271           
15 18.08.17 130 (ЮВ) 20000 м    3/1 1000 м средняя, верхняя 
[Cu hum|Ac trans|Ci fib]
+32.9 +6.6 19 +33  1017.1  -0.3  756  271           
18 18.08.17 060 (СВ) 25000 м    1/1 1000 м 
[Sc]
+25.9 +12.6 44 +31  1017.7  0.3  756  276    +34.2       
21 18.08.17 тихо ()   23000 м    ясно 
+21.4 +14.4 64 +29  1017.8  756  280           
00 19.08.17 120 (ЮВ) 20000 м    ясно 
+18.9 +13.4 70 +26  1017.9  756  282           
03 19.08.17 120 (ЮВ) 20000 м    1/0 верхняя 
[Ci fib]
+17.8 +12.8 73 +24  1018.7  0.7  757  284           
06 19.08.17 090 (В) 20000 м    ясно 
+23.2 +10.7 45 +25  1019.5  757  279  +16.8         
09 19.08.17 090 (В) 20000 м    ясно 
+30.4 +9.9 28 +31  1019.2  -0.1  757  273           
12 19.08.17 160 (Ю) 20000 м    3/3 600 м 
[Cu hum]
+33.9 +5.6 17 +34  1018.7  -0.4  757  270           
15 19.08.17 120 (ЮВ) 20000 м    3/3 600 м 
[Cu hum]
+33.2 +7.5 20 +33  1018  -0.7  756  271           
18 19.08.17 100 (В) 28000 м    ясно 
+25.2 +13.2 47 +31  1018.5  0.3  757  277    +34.6       
21 19.08.17 090 (В) 22000 м    ясно 
+22 +12.5 55 +26  1018.9  0.3  757  280           
00 20.08.17 110 (В) 20000 м    ясно 
+20.2 +11.9 59 +24  1019.1  0.1  757  282           
03 20.08.17 130 (ЮВ) 10 км    1/1 600 м 
[Sc]
+18.8 +10.6 59 +22  1019.2  0.1  757  283           
06 20.08.17 110 (В) 20000 м    ясно 
+24.1 +10.1 41 +25  1019.5  0.4  757  279  +18.8         
09 20.08.17 120 (ЮВ) 20000 м    ясно 
+30.7 +9.1 26 +31  1018.8  -0.5  757  273           
12 20.08.17 130 (ЮВ) 20000 м    3/3 1000 м 
[Cu med, cong]
+33.8 +6.1 18 +34  1017.8  -0.9  756  270           
15 20.08.17 110 (В) 20000 м    3/3 1000 м средняя 
[Cu hum|Ac und]
+33.6 +1.2 13 +34  1016.8  -1  755  271           
18 20.08.17 060 (СВ) 30000 м    ясно 
+26.9 +11.8 39 +30  1015.6  -1.3  755  275    +34.8       
21 20.08.17 110 (В) 25000 м    ясно 
+22.9 +11.5 49 +26  1015.3  -0.5  754  278           
Время (UTC), дата Ветер
(°,м/с) 
Видим.   Явления Облачность Т
(°С)
Тd
(°С)
f(%) Тe
(°С)
Pmin
(гПа)
dP
(гПа)
Po
(мм)
O2
(г/м3)
Тmin Tmax R s Состояние
почвы

Для получения пояснительной информации подведите курсор к названию столбца.

ПОГОДА в Светловодске - архив

Всё, что Вы хотите узнать о погоде в Светловодске - удобно и подробно!

Выберите нужную дату (начиная с 1 января 2015* года) и нажмите кнопку "Найти".
Будут отображены архивные сводки погоды по пункту Светловодск, начиная с указанной даты.


Отображать данные в формате CSV (для использования в таблицах Excel)


Внимание! Наш архив погоды предназначен исключительно для личного некоммерческого использования в познавательных целях. Если Вам необходимы официальные справки о состоянии погоды (для производственных, юридических, коммерческих и т.п. целей), обращайтесь в органы Росгидромета.

*Примечание: данная дата относится к архиву по метеостанциям СССР (Россия, СНГ, Балтия).
Архив по метеостанциям Зарубежной Европы и Азии (кроме Китая) хранится 10 дней, по другим регионам земного шара (Китай, Африка, Америка, Австралия, Океания) - 1 день.

Светловодск - район местоположения метеостанции


Название, широта, долгота, высота метеостанции:
Светловодск 49.1°ш. 33.2°д. 84 м над ур. моря [Украина]

Дополнительная информация

В oтличие oт бoльшинства пoгoдных сайтoв мы публикуем пoдрoбную метеoинфoрмацию в детальнoм прoфессиoнальнoм фoрмате.

Характеристики температуры и влажнoсти вoздуха измеряются на высoте 2 м в тени вдали oт зданий и деревьев.
Скoрoсть ветра измеряется на высoте 10 м (на урoвне рoста челoвека скoрoсть ветра ниже в 1.5-2 раза). Если метеoстанция нахoдится в гoрoде или в лесу, тo скoрoсть ветра занижена на 2-4 м/с пo сравнению с oткрытым местoм. Скoрoсть ветра над акватoриями крупных рек и oзёр, а также на вершинах хoлмoв на 2-5 м/с выше, чем в oбычных услoвиях.
Атмoсфернoе давление в разных тoчках местнoсти мoжет значительнo oтличаться oт давления на метеoстанции, в зависимoсти oт услoвий рельефа (при пoдъёме на 10 м давление пoнижается примернo на 1 мм рт.ст.).